New York Downtown Manhattan/w, NY

11:15 PM EDT on April 28, 2017 (GMT -0400)
New York Downtown Manhattan/w

Weather History for KJRB - March, 2014

Change the Weather History Date:

Monday, March 17, 2014

  Actual Average (KEWR) Record (KEWR)
Temperature  
Mean Temperature 30 °F -  
Max Temperature 35 °F 50 °F 80 °F (1945)
Min Temperature 26 °F 33 °F 16 °F (1967)
Degree Days  
Heating Degree Days 34    
Moisture  
Dew Point 13 °F    
Average Humidity 47    
Maximum Humidity 64    
Minimum Humidity 32    
Precipitation  
Precipitation 0.31 in - - ()
Sea Level Pressure  
Sea Level Pressure 30.09 in    
Wind  
Wind Speed 11 mph (ENE)    
Max Wind Speed 18 mph    
Max Gust Speed 33 mph    
Visibility 10 miles    
Events      
Averages and records for this station are not official NWS values.
T = Trace of Precipitation, MM = Missing Value Source: NWS Daily Summary

Daily Weather History Graph

Daily Weather History Graph

Search for Another Location

Airport or City:

Trip Planner

Search our weather history database for the weather conditions in past years. The results will help you decide how hot, cold, wet, or windy it might be!

Date:

Astronomy

Mar. 17, 2014 Rise Set
Actual Time 7:04 AM EDT 7:04 PM EDT
Civil Twilight 6:37 AM EDT 7:32 PM EDT
Nautical Twilight 6:05 AM EDT 8:04 PM EDT
Astronomical Twilight 5:33 AM EDT 8:36 PM EDT
Moon 8:19 PM EDT (3/17) 7:18 AM EDT (3/17)
Length of Visible Light 12h 55m
Length of Day
12h 00m
Full, 99% of the Moon is Illuminated
Mar 17
Full
Mar 23
Last Quarter
Mar 30
New
Apr 7
First Quarter
Apr 15
Full

Hourly Weather History & Observations

Time (EDT) Temp. Windchill Dew Point Humidity Pressure Visibility Wind Dir Wind Speed Gust Speed Precip Events Conditions
12:15 AM 33.8 °F 23.9 °F 14.0 °F 44% 30.14 in 10.0 mi NE 15.0 mph 21.9 mph N/A   Overcast
12:35 AM 33.8 °F 24.8 °F 10.4 °F 38% 30.13 in 10.0 mi NNE 12.7 mph 17.3 mph N/A   Overcast
12:55 AM 33.8 °F 23.9 °F 8.6 °F 35% 30.13 in 10.0 mi NE 15.0 mph 19.6 mph N/A   Overcast
1:15 AM 32.0 °F 22.1 °F 10.4 °F 41% 30.13 in 10.0 mi NE 13.8 mph 19.6 mph N/A   Overcast
1:35 AM 30.2 °F 21.3 °F 10.4 °F 44% 30.12 in 10.0 mi NE 10.4 mph 18.4 mph N/A   Overcast
1:55 AM 30.2 °F 20.2 °F 10.4 °F 44% 30.11 in 10.0 mi NE 12.7 mph 21.9 mph N/A   Overcast
2:15 AM 30.2 °F 19.3 °F 10.4 °F 44% 30.11 in 10.0 mi NE 15.0 mph 24.2 mph N/A   Overcast
2:35 AM 30.2 °F 18.9 °F 10.4 °F 44% 30.10 in 10.0 mi NE 16.1 mph 19.6 mph N/A   Overcast
2:55 AM 30.2 °F 18.5 °F 10.4 °F 44% 30.09 in 10.0 mi NE 17.3 mph 23.0 mph N/A   Overcast
3:15 AM 30.2 °F 20.8 °F 10.4 °F 44% 30.09 in 10.0 mi NE 11.5 mph 23.0 mph N/A   Overcast
3:35 AM 30.2 °F 19.8 °F 5.0 °F 34% 30.07 in 10.0 mi NE 13.8 mph 21.9 mph N/A   Overcast
3:55 AM 28.4 °F 15.8 °F 3.2 °F 34% 30.07 in 10.0 mi NE 18.4 mph - N/A   Overcast
4:15 AM 28.4 °F 17.5 °F 5.0 °F 37% 30.08 in 10.0 mi NE 13.8 mph 27.6 mph N/A   Overcast
4:35 AM 28.4 °F 17.5 °F 5.0 °F 37% 30.08 in 10.0 mi NE 13.8 mph 20.7 mph N/A   Overcast
4:55 AM 28.4 °F 18.0 °F 6.8 °F 40% 30.09 in 10.0 mi NE 12.7 mph 19.6 mph N/A   Overcast
5:15 AM 28.4 °F 17.0 °F 8.6 °F 43% 30.09 in 10.0 mi NE 15.0 mph 19.6 mph N/A   Overcast
5:35 AM 26.6 °F 15.7 °F 8.6 °F 47% 30.09 in 10.0 mi NE 12.7 mph 17.3 mph N/A   Overcast
5:55 AM 26.6 °F 15.2 °F 10.4 °F 51% 30.07 in 10.0 mi ENE 13.8 mph 19.6 mph N/A   Overcast
6:15 AM 26.6 °F 15.7 °F 12.2 °F 55% 30.07 in 10.0 mi NE 12.7 mph 19.6 mph N/A   Overcast
6:35 AM 26.6 °F 15.2 °F 12.2 °F 55% 30.09 in 10.0 mi NE 13.8 mph 19.6 mph N/A   Overcast
6:55 AM 26.6 °F 15.7 °F 14.0 °F 59% 30.09 in 10.0 mi NE 12.7 mph - N/A   Overcast
7:15 AM 26.6 °F 15.7 °F 15.8 °F 64% 30.10 in 10.0 mi NE 12.7 mph 18.4 mph N/A   Overcast
7:35 AM 26.6 °F 15.2 °F 15.8 °F 64% 30.10 in 10.0 mi NE 13.8 mph 20.7 mph N/A   Overcast
7:55 AM 28.4 °F 19.1 °F 17.6 °F 64% 30.10 in 10.0 mi NE 10.4 mph - N/A   Overcast
8:15 AM 26.6 °F 16.8 °F 15.8 °F 64% 30.11 in 10.0 mi NE 10.4 mph 21.9 mph N/A   Overcast
8:35 AM 26.6 °F 18.2 °F 15.8 °F 64% 30.11 in 10.0 mi NE 8.1 mph 20.7 mph N/A   Overcast
8:55 AM 26.6 °F 16.8 °F 15.8 °F 64% 30.11 in 10.0 mi NE 10.4 mph 18.4 mph N/A   Overcast
9:15 AM 26.6 °F 14.7 °F 14.0 °F 59% 30.11 in 9.0 mi NE 15.0 mph 20.7 mph N/A   Overcast
9:35 AM 26.6 °F 14.3 °F 12.2 °F 55% 30.09 in 9.0 mi NE 16.1 mph 21.9 mph N/A   Overcast
9:55 AM 26.6 °F 15.2 °F 14.0 °F 59% 30.09 in 10.0 mi NE 13.8 mph 21.9 mph N/A   Mostly Cloudy
10:15 AM 28.4 °F 17.0 °F 14.0 °F 55% 30.08 in 10.0 mi ENE 15.0 mph 27.6 mph N/A   Mostly Cloudy
10:35 AM 28.4 °F 15.8 °F 15.8 °F 59% 30.08 in 10.0 mi NE 18.4 mph - N/A   Overcast
10:55 AM 28.4 °F 18.0 °F 15.8 °F 59% 30.09 in 10.0 mi NE 12.7 mph 20.7 mph N/A   Overcast
11:15 AM 30.2 °F 23.4 °F 14.0 °F 51% 30.09 in 10.0 mi NE 6.9 mph 17.3 mph N/A   Overcast
11:35 AM 30.2 °F 21.9 °F 15.8 °F 55% 30.09 in 10.0 mi NE 9.2 mph - N/A   Overcast
11:55 AM 30.2 °F 19.8 °F 17.6 °F 60% 30.08 in 10.0 mi NE 13.8 mph 18.4 mph N/A   Scattered Clouds
12:15 PM 30.2 °F 20.2 °F 17.6 °F 60% 30.09 in 10.0 mi NE 12.7 mph - N/A   Mostly Cloudy
12:35 PM 30.2 °F 20.8 °F 15.8 °F 55% 30.09 in 10.0 mi NE 11.5 mph - N/A   Overcast
12:55 PM 30.2 °F 22.6 °F 15.8 °F 55% 30.10 in 10.0 mi East 8.1 mph - N/A   Overcast
1:15 PM 30.2 °F 21.3 °F 15.8 °F 55% 30.08 in 9.0 mi ENE 10.4 mph 17.3 mph N/A   Overcast
1:35 PM 32.0 °F 24.2 °F 15.8 °F 51% 30.06 in 10.0 mi ENE 9.2 mph - N/A   Overcast
1:55 PM 32.0 °F 25.6 °F 12.2 °F 44% 30.07 in 10.0 mi ENE 6.9 mph - N/A   Overcast
2:15 PM 32.0 °F 27.5 °F 12.2 °F 44% 30.07 in 10.0 mi East 4.6 mph - N/A   Overcast
2:35 PM 33.8 °F 27.7 °F 10.4 °F 38% 30.06 in 10.0 mi East 6.9 mph - N/A   Overcast
2:55 PM 33.8 °F 25.8 °F 12.2 °F 41% 30.06 in 10.0 mi NNE 10.4 mph 33.4 mph 0.07 in   Overcast
3:15 PM 35.6 °F 29.2 °F 12.2 °F 38% 30.04 in 10.0 mi ENE 8.1 mph - 0.12 in   Mostly Cloudy
3:35 PM 35.6 °F 29.2 °F 10.4 °F 35% 30.06 in 10.0 mi East 8.1 mph - 0.12 in   Partly Cloudy
3:55 PM 35.6 °F 30.7 °F 8.6 °F 33% 30.06 in 10.0 mi ESE 5.8 mph - 0.15 in   Mostly Cloudy
4:15 PM 33.8 °F 28.6 °F 6.8 °F 32% 30.05 in 10.0 mi South 5.8 mph - N/A   Overcast
4:35 PM 33.8 °F 27.7 °F 10.4 °F 38% 30.06 in 10.0 mi East 6.9 mph - N/A   Overcast
4:55 PM 33.8 °F 30.8 °F 10.4 °F 38% 30.06 in 10.0 mi East 3.5 mph - N/A   Overcast
5:15 PM 33.8 °F 27.7 °F 6.8 °F 32% 30.07 in 10.0 mi SW 6.9 mph - 0.09 in   Overcast
5:35 PM 33.8 °F 29.6 °F 8.6 °F 35% 30.07 in 10.0 mi East 4.6 mph - 0.09 in   Overcast
5:55 PM 33.8 °F - 10.4 °F 38% 30.08 in 10.0 mi Calm Calm - 0.09 in   Overcast
6:15 PM 33.8 °F 30.8 °F 12.2 °F 41% 30.08 in 10.0 mi ENE 3.5 mph - N/A   Overcast
6:35 PM 33.8 °F - 12.2 °F 41% 30.08 in 10.0 mi Calm Calm - N/A   Overcast
6:55 PM 33.8 °F 28.6 °F 14.0 °F 44% 30.08 in 10.0 mi East 5.8 mph - N/A   Overcast
7:15 PM 33.8 °F 28.6 °F 17.6 °F 52% 30.08 in 10.0 mi ENE 5.8 mph - N/A   Overcast
7:35 PM 33.8 °F 30.8 °F 17.6 °F 52% 30.09 in 10.0 mi ENE 3.5 mph - N/A   Overcast
7:55 PM 35.6 °F 32.8 °F 19.4 °F 52% 30.09 in 10.0 mi East 3.5 mph - N/A   Overcast
8:15 PM 33.8 °F 28.6 °F 15.8 °F 48% 30.10 in 10.0 mi ENE 5.8 mph - N/A   Overcast
8:35 PM 33.8 °F 30.8 °F 14.0 °F 44% 30.11 in 10.0 mi ENE 3.5 mph - N/A   Overcast
8:55 PM 33.8 °F 29.6 °F 12.2 °F 41% 30.11 in 10.0 mi ENE 4.6 mph - N/A   Overcast
9:15 PM 33.8 °F - 12.2 °F 41% 30.12 in 10.0 mi Calm Calm - N/A   Overcast
9:35 PM 33.8 °F 28.6 °F 10.4 °F 38% 30.12 in 10.0 mi ENE 5.8 mph - N/A   Overcast
9:55 PM 33.8 °F 29.6 °F 12.2 °F 41% 30.13 in 10.0 mi East 4.6 mph - N/A   Overcast
10:15 PM 33.8 °F - 12.2 °F 41% 30.14 in 10.0 mi Calm Calm - N/A   Overcast
10:35 PM 33.8 °F 29.6 °F 12.2 °F 41% 30.14 in 10.0 mi NE 4.6 mph - N/A   Overcast
10:55 PM 33.8 °F 30.8 °F 14.0 °F 44% 30.14 in 10.0 mi East 3.5 mph - N/A   Overcast
11:15 PM 33.8 °F 27.7 °F 15.8 °F 48% 30.14 in 10.0 mi ENE 6.9 mph - N/A   Mostly Cloudy
11:35 PM 33.8 °F 27.7 °F 17.6 °F 52% 30.14 in 10.0 mi ENE 6.9 mph - N/A   Overcast
11:55 PM 33.8 °F 27.0 °F 19.4 °F 56% 30.13 in 10.0 mi ENE 8.1 mph - N/A   Mostly Cloudy